Weather History for Appleton, MN

Change the Weather History Date:

Monday, October 11, 2010

  Actual Average Record
Temperature  
Mean Temperature 62 °F -  
Max Temperature 77 °F 58 °F 80 °F (1997)
Min Temperature 46 °F 35 °F 26 °F (2012)
Degree Days  
Heating Degree Days 4    
Growing Degree Days 12 (Base 50)    
Moisture  
Dew Point 54 °F    
Average Humidity 84    
Maximum Humidity 100    
Minimum Humidity 47    
Precipitation  
Precipitation 0.00 in - - ()
Sea Level Pressure  
Sea Level Pressure 29.86 in    
Wind  
Wind Speed 1 mph (NW)    
Max Wind Speed 7 mph    
Max Gust Speed -    
Visibility 8 miles    
Events      
Averages and records for this station are not official NWS values.
T = Trace of Precipitation, MM = Missing Value Source: NWS Daily Summary

Daily Weather History Graph

Daily Weather History Graph

Search for Another Location

Airport:

Trip Planner

Search our weather history database for the weather conditions in past years. The results will help you decide how hot, cold, wet, or windy it might be!

Date:

Astronomy

Oct. 11, 2010 Rise Set
Actual Time 7:34 AM CDT 6:45 PM CDT
Civil Twilight 7:05 AM CDT 7:15 PM CDT
Nautical Twilight 6:31 AM CDT 7:49 PM CDT
Astronomical Twilight 5:56 AM CDT 8:23 PM CDT
Moon 12:27 PM CDT (10/11) 9:08 PM CDT (10/11)
Length of Visible Light 12h 10m
Length of Day
11h 11m
Waxing Crescent, 19% of the Moon is Illuminated
Oct 11
Waxing Crescent
Oct 14
First Quarter
Oct 22
Full
Oct 30
Last Quarter
Nov 5
New

Hourly Weather History & Observations

Time (CDT) Temp. Dew Point Humidity Pressure Visibility Wind Dir Wind Speed Gust Speed Precip Events Conditions
12:13 AM 53.6 °F 53.6 °F 100% 29.86 in 7.0 mi Calm Calm - N/A   Clear
12:33 AM 51.8 °F 51.8 °F 100% 29.85 in 7.0 mi Calm Calm - N/A   Clear
12:53 AM 50.0 °F 50.0 °F 100% 29.86 in 7.0 mi Calm Calm - N/A   Clear
1:14 AM 51.8 °F 51.8 °F 100% 29.85 in 7.0 mi NW 3.5 mph - N/A   Clear
1:33 AM 51.8 °F 51.8 °F 100% 29.85 in 7.0 mi Calm Calm - N/A   Clear
1:53 AM 51.8 °F 51.8 °F 100% 29.85 in 5.0 mi NNW 3.5 mph - N/A   Clear
2:14 AM 50.0 °F 50.0 °F 100% 29.85 in 7.0 mi Calm Calm - N/A   Clear
2:34 AM 50.0 °F 50.0 °F 100% 29.85 in 7.0 mi Calm Calm - N/A   Clear
2:53 AM 50.0 °F 50.0 °F 100% 29.85 in 7.0 mi Calm Calm - N/A   Clear
3:13 AM 48.2 °F 48.2 °F 100% 29.85 in 5.0 mi Calm Calm - N/A   Clear
3:34 AM 50.0 °F 50.0 °F 100% 29.85 in 5.0 mi Calm Calm - N/A   Clear
3:53 AM 50.0 °F 50.0 °F 100% 29.85 in 5.0 mi Calm Calm - N/A   Clear
4:13 AM 48.2 °F 48.2 °F 100% 29.85 in 4.0 mi Calm Calm - N/A   Clear
4:33 AM 48.2 °F 48.2 °F 100% 29.85 in 5.0 mi Calm Calm - N/A   Clear
4:53 AM 48.2 °F 48.2 °F 100% 29.85 in 5.0 mi Calm Calm - N/A   Clear
5:13 AM 48.2 °F 48.2 °F 100% 29.85 in 5.0 mi Calm Calm - N/A   Scattered Clouds
5:34 AM 48.2 °F 48.2 °F 100% 29.86 in 7.0 mi North 3.5 mph - N/A   Scattered Clouds
5:53 AM 46.4 °F 46.4 °F 100% 29.87 in 5.0 mi Calm Calm - N/A   Clear
6:13 AM 48.2 °F 48.2 °F 100% 29.87 in 5.0 mi Calm Calm - N/A   Clear
6:34 AM 50.0 °F 50.0 °F 100% 29.87 in 7.0 mi Calm Calm - N/A   Mostly Cloudy
6:53 AM 50.0 °F 50.0 °F 100% 29.87 in 7.0 mi Calm Calm - N/A   Mostly Cloudy
7:14 AM 50.0 °F 50.0 °F 100% 29.88 in 5.0 mi Calm Calm - N/A   Scattered Clouds
7:33 AM 48.2 °F 48.2 °F 100% 29.87 in 4.0 mi WSW 3.5 mph - N/A   Clear
7:54 AM 48.2 °F 48.2 °F 100% 29.87 in 2.0 mi West 3.5 mph - N/A   Clear
8:13 AM 50.0 °F 50.0 °F 100% 29.87 in 1.8 mi West 3.5 mph - N/A   Clear
8:34 AM 51.8 °F 51.8 °F 100% 29.87 in 4.0 mi Calm Calm - N/A   Clear
8:54 AM 53.6 °F 53.6 °F 100% 29.88 in 5.0 mi Calm Calm - N/A   Clear
9:14 AM 53.6 °F 53.6 °F 100% 29.89 in 7.0 mi West 3.5 mph - N/A   Clear
9:33 AM 55.4 °F 55.4 °F 100% 29.88 in 7.0 mi WSW 3.5 mph - N/A   Clear
9:53 AM 57.2 °F 57.2 °F 100% 29.88 in 10.0 mi West 4.6 mph - N/A   Clear
10:13 AM 59.0 °F 59.0 °F 100% 29.89 in 10.0 mi West 3.5 mph - N/A   Clear
10:34 AM 62.6 °F 60.8 °F 94% 29.89 in 10.0 mi Calm Calm - N/A   Clear
10:54 AM 62.6 °F 59.0 °F 88% 29.88 in 10.0 mi West 3.5 mph - N/A   Clear
11:13 AM 64.4 °F 60.8 °F 88% 29.88 in 10.0 mi West 3.5 mph - N/A   Clear
11:33 AM 66.2 °F 60.8 °F 83% 29.88 in 10.0 mi Calm Calm - N/A   Clear
11:53 AM 68.0 °F 60.8 °F 78% 29.88 in 10.0 mi Calm Calm - N/A   Clear
12:13 PM 69.8 °F 60.8 °F 73% 29.88 in 10.0 mi WNW 3.5 mph - N/A   Clear
12:33 PM 71.6 °F 60.8 °F 69% 29.87 in 10.0 mi North 4.6 mph - N/A   Clear
1:13 PM 73.4 °F 60.8 °F 65% 29.87 in 10.0 mi NNE 5.8 mph - N/A   Clear
1:33 PM 73.4 °F 60.8 °F 65% 29.86 in 10.0 mi Calm Calm - N/A   Clear
1:53 PM 73.4 °F 60.8 °F 65% 29.86 in 10.0 mi North 4.6 mph - N/A   Clear
2:13 PM 75.2 °F 60.8 °F 61% 29.85 in 10.0 mi Calm Calm - N/A   Clear
2:34 PM 75.2 °F 59.0 °F 57% 29.84 in 10.0 mi NNW 4.6 mph - N/A   Clear
2:53 PM 75.2 °F 57.2 °F 53% 29.84 in 10.0 mi North 6.9 mph - N/A   Clear
3:13 PM 75.2 °F 57.2 °F 53% 29.83 in 10.0 mi NNW 3.5 mph - N/A   Clear
3:33 PM 77.0 °F 57.2 °F 50% 29.83 in 10.0 mi NNW 4.6 mph - N/A   Clear
3:53 PM 77.0 °F 59.0 °F 54% 29.83 in 10.0 mi NW 4.6 mph - N/A   Clear
4:13 PM 77.0 °F 57.2 °F 50% 29.83 in 10.0 mi NNW 5.8 mph - N/A   Clear
4:34 PM 77.0 °F 57.2 °F 50% 29.83 in 10.0 mi NNW 3.5 mph - N/A   Clear
4:53 PM 77.0 °F 57.2 °F 50% 29.84 in 10.0 mi Calm Calm - N/A   Clear
5:14 PM 77.0 °F 55.4 °F 47% 29.84 in 10.0 mi NNW 6.9 mph - N/A   Clear
5:34 PM 75.2 °F 57.2 °F 53% 29.84 in 10.0 mi NW 4.6 mph - N/A   Clear
5:53 PM 73.4 °F 57.2 °F 57% 29.84 in 10.0 mi WNW 4.6 mph - N/A   Clear
6:13 PM 71.6 °F 55.4 °F 57% 29.84 in 10.0 mi WNW 3.5 mph - N/A   Clear
6:33 PM 71.6 °F 55.4 °F 57% 29.84 in 10.0 mi NW 3.5 mph - N/A   Clear
6:54 PM 66.2 °F 55.4 °F 68% 29.85 in 7.0 mi Calm Calm - N/A   Clear
7:13 PM 64.4 °F 55.4 °F 73% 29.85 in 10.0 mi West 3.5 mph - N/A   Clear
7:33 PM 62.6 °F 55.4 °F 77% 29.85 in 10.0 mi West 3.5 mph - N/A   Clear
8:14 PM 60.8 °F 55.4 °F 82% 29.86 in 10.0 mi West 3.5 mph - N/A   Clear
8:34 PM 57.2 °F 53.6 °F 88% 29.86 in 7.0 mi Calm Calm - N/A   Clear
8:53 PM 57.2 °F 53.6 °F 88% 29.86 in 5.0 mi Calm Calm - N/A   Clear
9:13 PM 57.2 °F 55.4 °F 94% 29.86 in 7.0 mi Calm Calm - N/A   Clear
9:33 PM 57.2 °F 57.2 °F 100% 29.87 in 7.0 mi Calm Calm - N/A   Clear
9:54 PM 55.4 °F 55.4 °F 100% 29.87 in 7.0 mi Calm Calm - N/A   Clear
10:14 PM 55.4 °F 55.4 °F 100% 29.87 in 10.0 mi Calm Calm - N/A   Clear
10:34 PM 55.4 °F 55.4 °F 100% 29.88 in 10.0 mi Calm Calm - N/A   Clear
10:53 PM 53.6 °F 53.6 °F 100% 29.88 in 10.0 mi WSW 4.6 mph - N/A   Clear
11:14 PM 53.6 °F 53.6 °F 100% 29.88 in 10.0 mi WSW 3.5 mph - N/A   Clear
11:33 PM 53.6 °F 53.6 °F 100% 29.88 in 10.0 mi WSW 3.5 mph - N/A   Clear
11:53 PM 53.6 °F 53.6 °F 100% 29.88 in 10.0 mi West 3.5 mph - N/A   Clear